Flag for China Weather past 2 weeks in Guilin, Guangxi, China

Now
73 °F

Fog.


Feels Like: 72 °F
Forecast: 71 / 93 °F
Wind: 3 mph from North

Location: Guilin Airport

Current Time: Oct 2, 2014 at 1:00:08 AM

Latest Report: Oct 2, 2014 at 12:00 AM


Visibility: 2 mi

Pressure: 29.92 "Hg

Humidity: 89%

Dew point: 70 °F

Location of GuilinLocation

Historic Weather in Guilin — Graph

°F

Guilin temperature yesterday

Maximum temperature yesterday: 86 °F (at 2:00 PM)
Minimum temperature yesterday: 68 °F (at 6:00 AM)
Average temperature yesterday: 77 °F

Past Weeks' High & Low Weather Summary

 TemperatureHumidityPressure
High93 °F (Sep 29, 4:00 PM)100% (Sep 18, 4:00 AM)30.07 "Hg (Sep 18, 4:00 AM)
Low63 °F (Sep 22, 5:00 AM)31% (Sep 23, 3:00 PM)29.71 "Hg (Sep 17, 2:00 AM)
Average77 °F74%29.89 "Hg
* Reported Midnight between Sep 16 and Sep 17 — Midnight between Oct 1 and Oct 2, Guilin, Weather by CustomWeather, © 2014

Note: Actual official high and low records may vary slightly from our data, if they occured in-between our weather recording intervals... More about our weather records

Advertising

Guilin weather history for previous 24 hours

 ConditionsComfort  
Time TempWeatherWind HumidityBarometerVisibility
12:00 AM
Oct 2
73 °FFog.3 mph89%29.92 "Hg2 mi
11:00 PM
Oct 1
73 °FFog.3 mph94%29.92 "Hg2 mi
10:00 PM75 °FFog.3 mph83%29.92 "Hg2 mi
9:00 PM75 °FFog.1 mph89%29.92 "Hg2 mi
8:00 PM77 °FFog.No wind79%29.92 "Hg3 mi
7:00 PM81 °FClear.No wind70%29.89 "Hg4 mi
6:00 PM82 °FClear.3 mph62%29.89 "Hg4 mi
5:00 PM84 °FClear.3 mph58%29.89 "Hg4 mi
4:00 PM86 °FClear.6 mph52%29.86 "Hg5 mi
3:00 PM86 °FClear.6 mph49%29.89 "Hg4 mi
2:00 PM86 °FClear.6 mph49%29.92 "Hg4 mi
1:00 PM84 °FClear.6 mph51%29.95 "Hg4 mi
12:00 PM82 °FClear.3 mph51%29.98 "Hg5 mi
11:00 AM81 °FClear.3 mph58%30.01 "Hg5 mi
10:00 AM79 °FClear.6 mph61%30.04 "Hg5 mi
9:00 AM77 °FClear.1 mph69%30.04 "Hg4 mi
8:00 AM72 °FFog.1 mph88%30.01 "Hg2 mi
7:00 AM68 °FFog.1 mph100%30.01 "Hg2 mi
6:00 AM68 °FFog.1 mph94%29.98 "Hg2 mi
5:00 AM70 °FFog.3 mph88%29.98 "Hg2 mi
4:00 AM70 °FFog.No wind83%29.95 "Hg2 mi
3:00 AM70 °FFog.No wind83%29.95 "Hg2 mi
2:00 AM70 °FFog.No wind88%29.95 "Hg2 mi
1:00 AM72 °FFog.1 mph78%29.98 "Hg3 mi
Weather by CustomWeather, © 2014

See weather overviewHow to use our weather pages